Theta_e
331 330 327 327 329 330 330 331 331 329 329 328 329 329 328 328 327 328 329 322 328 332 333 332 331 329 328 327 325 323 322 320 318 317 316 315 315 314 314 314 314 314 314
331 329 327 326 328 331 333 332 329 329 329 327 327 327 327 327 327 327 328 327 325 327 331 333 334 333 332 331 329 327 325 323 320 318 317 315 315 314 314 314 314 314 314
331 328 328 326 327 331 332 329 329 329 329 326 325 325 326 326 326 326 327 327 325 321 323 327 329 332 333 334 333 330 328 326 323 321 319 318 317 316 315 314 314 314 314
331 329 326 325 326 329 330 330 327 326 326 324 323 323 324 325 326 326 326 326 325 324 321 324 325 327 328 330 331 332 331 328 326 324 322 320 319 318 317 316 315 315 314
330 328 326 325 325 328 328 327 327 326 323 323 322 322 323 322 324 324 324 324 324 323 323 323 321 321 322 325 327 329 331 330 328 326 324 322 322 321 319 318 317 316 315
327 328 326 325 325 326 326 326 323 325 325 322 320 320 322 323 324 324 323 322 322 322 321 321 321 317 315 320 323 326 328 330 329 327 326 324 324 322 321 320 319 317 317
326 327 324 323 324 324 324 324 324 323 321 323 319 318 319 320 318 319 320 320 320 320 320 319 319 319 318 319 320 322 326 328 328 327 326 325 324 323 323 322 321 319 318
326 325 324 322 323 324 324 322 322 319 319 320 315 315 311 314 315 315 317 318 319 320 318 317 316 316 316 315 315 315 316 319 323 323 323 322 321 321 321 321 321 320 320
325 325 324 324 323 324 323 322 321 319 315 315 314 313 308 308 313 315 314 315 315 315 315 314 312 312 311 310 311 309 305 305 307 309 310 312 313 313 314 315 316 317 317
323 324 323 324 323 323 323 322 322 321 320 316 313 313 312 305 306 305 304 302 302 300 299 300 299 298 297 296 296 295 297 298 299 301 303 305 306 308 310 311 311 312 313
322 322 323 323 322 322 323 322 322 321 321 319 315 312 308 308 305 301 303 297 297 296 295 295 295 294 293 292 292 293 296 297 298 298 299 300 302 303 305 307 309 310 311
318 317 320 320 319 319 318 315 308 304 305 301 297 296 297 297 297 298 296 297 296 291 291 292 291 291 291 291 292 292 294 296 298 298 299 300 302 303 305 306 307 307 308
296 297 298 297 297 297 296 295 294 293 293 292 291 290 290 289 291 293 293 292 290 291 290 289 289 289 291 290 290 290 291 293 294 295 296 297 298 299 300 302 303 304 305
293 294 293 293 293 292 292 291 290 289 289 288 287 287 286 286 286 285 286 286 288 288 289 287 289 290 291 291 291 291 290 291 292 292 293 293 294 294 295 296 298 299 300
290 290 290 289 289 289 288 287 286 285 285 284 284 284 284 284 285 285 286 285 285 283 287 288 288 291 290 290 289 288 287 285 287 287 289 290 290 290 290 291 292 293 294
288 286 285 285 285 285 284 284 283 282 281 281 281 281 281 282 283 283 283 284 284 282 282 286 285 286 286 284 286 282 282 282 282 284 284 285 286 286 287 288 288 289 290
284 283 282 282 281 281 281 281 280 280 279 279 280 279 279 280 280 280 280 280 279 280 277 280 281 282 281 281 280 280 280 278 279 281 283 283 284 284 284 285 286 287 288
281 280 280 280 279 279 279 279 278 278 278 277 278 278 277 279 278 278 278 278 277 278 277 275 277 278 278 278 278 277 277 278 277 279 281 282 282 282 282 283 284 283 283
278 278 278 278 278 278 278 278 278 277 276 276 276 276 276 276 276 276 276 275 276 277 277 275 275 277 277 276 275 275 275 275 276 278 279 279 279 280 281 281 281 280 279
279 279 278 277 277 276 276 276 276 276 276 276 276 275 275 276 275 276 275 274 274 274 274 274 274 274 274 274 273 271 270 272 272 274 275 275 277 277 277 277 277 276 277
279 279 278 278 278 278 277 275 275 274 274 274 275 276 275 275 278 277 276 275 273 272 272 272 271 271 271 270 268 269 268 269 270 271 271 271 270 270 270 272 273 274 275
278 278 277 277 277 278 279 279 276 274 274 273 272 273 275 275 275 276 277 277 275 271 270 270 270 269 268 268 268 267 266 265 263 269 267 266 268 267 268 269 272 274 275
278 278 278 277 276 277 279 278 277 275 274 273 272 271 272 273 274 274 275 275 274 274 273 271 269 268 267 267 267 266 265 264 263 266 265 262 266 264 267 268 272 273 274
275 276 276 277 277 278 279 278 277 274 273 273 272 271 270 270 272 273 272 270 270 269 270 271 269 268 267 268 267 266 265 264 263 264 265 259 263 262 265 266 270 272 272
274 274 275 275 276 276 279 279 276 274 273 272 272 271 270 269 273 274 269 268 267 268 271 270 269 269 270 269 268 265 261 259 258 260 263 261 262 261 262 262 265 270 271
273 273 273 273 274 275 278 278 276 273 271 271 271 270 271 270 272 272 268 265 264 266 263 263 263 264 265 265 267 264 262 258 257 257 262 259 260 260 257 262 263 263 263
Wind_Speed
9 10 8 7 5 5 6 5 5 5 4 6 7 7 6 5 8 5 4 12 11 11 14 16 18 17 16 16 16 15 14 14 12 10 10 10 10 10 11 11 11 12 12
10 10 10 8 7 5 5 3 3 5 5 6 8 7 5 5 7 7 4 7 10 10 12 13 16 19 20 21 20 20 19 18 16 16 15 13 12 12 13 14 14 15 15
13 13 10 9 8 5 6 3 4 6 5 4 7 7 4 4 4 5 5 4 7 10 10 13 14 14 17 18 22 23 22 21 20 19 19 18 17 16 16 16 16 17 17
12 12 10 9 9 7 5 5 3 4 3 3 5 3 3 3 5 6 6 6 5 5 10 13 15 15 16 17 19 18 22 21 21 21 21 21 19 19 18 18 18 19 19
13 10 9 9 9 6 5 5 5 5 4 5 4 3 4 4 6 7 8 8 7 6 5 7 11 10 14 17 18 20 19 23 22 22 21 21 21 22 21 20 19 19 21
12 10 8 9 8 7 5 6 4 5 4 5 5 5 6 5 5 7 8 7 8 9 8 9 5 6 13 16 17 19 21 20 23 22 21 20 22 24 24 23 23 21 22
10 10 8 8 8 8 7 6 6 6 4 3 1 4 5 5 7 6 6 8 10 10 9 8 5 4 5 12 13 16 18 21 21 24 21 21 21 22 24 25 25 24 24
6 9 8 8 8 6 7 8 7 2 3 4 2 2 2 5 8 8 8 8 10 4 5 5 6 6 4 4 5 9 12 16 19 20 20 19 19 20 21 23 25 26 27
7 8 9 8 7 7 6 8 7 8 4 2 5 3 2 5 4 4 9 7 5 3 3 3 4 5 5 4 6 8 13 14 15 16 18 18 19 20 22 23 25 26 28
7 8 8 8 6 6 8 6 7 7 8 7 4 7 5 1 2 3 0 4 6 7 8 6 8 9 11 8 13 17 17 15 15 15 16 17 18 19 21 23 25 26 29
9 6 5 8 7 7 7 8 7 7 5 7 3 1 3 3 3 3 6 3 3 5 6 6 6 6 8 7 6 9 13 14 14 13 14 15 17 18 20 23 25 26 28
5 4 5 3 1 0 2 5 11 12 10 10 8 9 6 3 2 1 2 2 2 4 4 5 6 5 4 4 6 10 15 14 15 16 18 19 20 21 22 24 25 26 27
10 13 13 14 12 12 16 15 15 14 14 11 11 9 7 8 6 4 2 3 2 2 3 4 4 4 5 4 6 12 13 14 16 17 19 20 21 22 23 24 25 27 28
12 15 15 17 18 17 17 16 14 13 14 14 14 11 10 9 8 9 6 3 2 2 3 4 2 2 3 4 5 10 8 15 16 20 19 19 20 21 22 24 25 26 28
13 17 19 19 20 16 17 15 14 14 15 12 14 11 12 9 10 7 6 7 3 4 2 1 3 3 5 6 8 9 10 18 21 21 20 20 22 23 25 26 27 28 29
16 18 19 18 20 19 18 17 16 15 15 12 10 13 11 8 7 7 7 6 6 4 3 4 6 7 7 8 9 11 9 17 19 19 21 22 23 24 26 26 27 28 28
19 25 19 18 19 21 18 17 18 15 17 13 12 13 13 11 8 8 7 7 7 6 5 5 8 9 10 10 9 9 10 11 9 19 23 23 26 27 28 29 29 26 26
20 20 19 20 19 18 17 18 17 15 16 15 14 14 14 9 12 10 7 8 7 7 5 9 9 8 10 10 10 12 10 9 11 18 24 27 27 30 31 28 26 26 30
21 20 19 19 18 17 17 16 15 15 14 14 13 13 13 13 12 10 9 9 7 7 7 8 9 8 9 9 11 11 11 12 10 23 24 27 29 28 24 27 27 36 36
20 20 19 18 17 15 14 14 14 13 13 12 11 12 11 11 11 10 9 9 9 9 8 8 9 9 9 10 10 12 12 11 13 12 19 22 24 26 26 33 37 35 36
19 17 17 17 16 14 11 11 12 12 11 10 10 9 10 14 22 19 10 11 11 10 9 9 10 10 10 12 13 11 14 14 14 14 12 11 15 15 16 25 27 33 34
18 16 17 16 16 12 23 22 14 10 11 11 11 12 11 13 17 22 21 20 14 12 13 11 10 12 13 13 12 13 14 15 18 10 15 15 13 14 14 14 29 35 37
14 16 15 16 16 14 22 21 20 10 11 11 12 12 13 12 14 14 18 20 16 18 17 13 13 13 16 15 16 17 15 15 16 15 16 16 14 16 15 16 32 36 40
13 13 15 14 14 15 24 20 18 13 12 11 10 12 13 15 16 18 16 15 15 14 13 11 14 15 15 15 14 14 16 16 14 13 13 16 15 17 15 15 36 40 40
11 12 11 13 13 14 24 22 15 11 11 10 10 12 12 14 23 25 16 15 14 14 15 22 23 23 24 24 21 12 11 13 14 15 12 12 14 18 17 20 18 31 37
11 10 13 12 14 12 23 23 17 9 10 9 10 12 16 18 25 25 15 14 13 14 14 12 13 15 17 16 24 13 11 12 13 15 10 12 17 14 15 17 16 16 16
Wind_Direction
168 162 164 173 179 199 213 195 193 186 224 228 195 202 215 199 224 204 185 173 193 220 230 219 211 211 215 210 208 206 206 202 202 212 223 233 240 244 247 248 249 251 252
175 171 160 171 179 213 212 183 209 166 209 215 224 214 202 207 229 226 222 177 192 221 240 248 242 230 224 218 213 212 208 207 205 204 211 224 238 246 250 251 252 252 253
177 176 166 170 186 199 207 171 215 190 202 215 225 221 216 224 237 228 232 242 187 211 228 246 255 261 259 250 233 224 217 214 211 212 214 214 213 229 242 249 254 255 254
172 176 170 168 174 199 206 195 195 184 212 206 223 183 207 219 231 244 230 236 244 241 209 234 246 255 262 264 267 259 233 224 222 217 219 223 228 233 230 233 247 254 256
174 180 168 168 169 180 205 195 199 192 202 217 216 208 195 216 225 232 229 231 240 246 251 228 223 238 256 261 264 265 258 237 229 230 230 233 234 234 240 243 240 248 257
167 188 171 167 170 187 180 194 196 195 218 214 218 226 230 227 227 234 226 231 233 233 235 242 232 231 241 257 265 267 265 257 242 242 243 242 245 242 240 242 247 248 249
164 189 165 172 173 196 185 199 199 210 190 240 219 233 252 234 240 238 240 235 231 224 230 236 241 251 260 237 261 269 271 274 263 256 257 258 261 263 254 253 253 252 254
200 181 177 179 188 196 199 180 204 169 208 183 187 329 254 220 230 224 226 231 243 243 237 252 267 273 291 315 319 327 319 306 296 293 295 291 291 290 283 278 271 268 264
209 193 191 184 186 200 208 198 190 200 188 179 211 213 221 239 269 169 228 232 240 269 321 326 342 340 332 326 332 332 3 344 331 325 317 310 304 300 296 292 287 285 282
192 211 198 196 187 207 216 210 198 206 218 222 192 230 247 83 300 280 304 34 47 34 35 24 18 27 18 20 25 28 10 356 348 341 329 317 307 300 295 290 286 283 280
170 156 178 194 206 214 212 218 211 224 234 243 217 175 215 250 183 253 283 72 82 55 38 35 35 31 26 25 22 19 7 353 349 345 338 328 318 312 302 296 291 287 283
131 99 171 186 269 207 83 41 52 48 59 62 60 41 25 31 88 12 347 346 22 38 50 40 51 51 35 20 15 3 348 333 331 326 320 313 304 298 295 292 289 287 285
57 53 66 63 63 60 67 67 65 54 56 65 63 66 56 47 18 17 31 10 2 16 42 51 43 31 17 353 353 350 331 332 331 330 326 321 316 314 314 311 307 303 298
61 71 68 69 69 67 68 73 69 66 55 56 50 56 65 44 34 41 12 353 339 348 34 358 29 350 357 323 288 326 329 328 333 321 315 315 311 309 308 305 302 299 296
74 69 66 64 63 66 72 63 65 62 61 58 51 38 53 41 43 36 34 34 9 355 341 29 348 327 346 341 346 347 338 346 328 320 322 323 321 318 315 311 308 305 301
62 76 61 63 61 59 61 68 64 62 66 58 57 58 54 47 45 39 30 27 25 0 310 357 338 341 351 338 348 339 334 327 317 324 320 319 315 314 310 306 303 299 297
57 60 61 63 65 60 60 66 65 63 66 67 58 53 50 41 42 34 30 23 16 6 336 314 334 336 339 325 332 326 320 316 317 318 315 314 312 310 308 305 301 299 299
62 66 65 65 66 66 64 66 67 61 59 54 50 51 45 33 35 29 23 15 14 350 334 323 322 325 321 326 321 328 324 309 319 310 316 311 311 308 306 302 304 305 307
70 69 69 67 63 60 62 62 64 64 61 56 49 47 41 34 33 19 16 6 360 339 329 318 314 320 320 329 334 319 320 315 312 312 316 310 305 302 301 303 304 305 303
72 68 64 66 66 62 59 56 56 56 54 50 53 51 36 28 28 19 14 5 356 345 337 323 322 321 330 343 327 324 320 317 314 316 305 300 314 312 314 308 303 300 298
67 68 70 66 63 62 59 58 60 59 54 49 44 40 41 27 22 14 5 -0 354 346 333 331 324 326 330 336 330 328 311 315 313 309 315 312 325 306 300 298 294 296 294
68 66 63 63 60 56 56 57 61 58 52 43 36 25 22 23 10 6 358 355 355 346 339 331 329 325 328 326 325 320 317 317 315 314 327 305 304 296 299 291 294 297 296
65 66 67 65 61 51 48 47 45 46 46 39 32 25 15 9 360 357 353 350 349 347 335 327 325 329 326 326 319 315 317 308 306 312 308 303 307 296 295 289 290 291 294
62 59 59 58 55 47 45 37 40 38 34 33 28 24 15 2 351 350 351 345 346 338 333 351 333 325 312 312 314 313 313 307 297 297 302 299 300 289 289 291 288 290 293
63 57 51 47 48 44 36 37 30 30 22 17 16 20 8 356 346 348 348 344 340 331 348 335 328 320 321 323 320 323 317 312 305 300 306 285 289 295 297 287 281 289 292
60 54 53 43 33 31 29 29 34 17 9 10 9 7 2 351 350 350 351 349 334 334 345 334 327 323 322 316 321 316 310 302 301 297 297 300 296 301 301 289 287 293 282